Torna al catalogo

STARLINK-31458

AttivoComunicazioniVLEO
NORAD 59501·PAYLOAD·🇺🇸 United States

Lanciato Apr 13, 2024 da Cape Canaveral Space Force Station

Loading…

Prossimi Passaggi (prossime 24 ore)

TLE

AggiornatoSource: CelesTrak SupGP

Epoca: Sep 14, 2026, 14:37 UTC

1 59501C 24071T   26257.60951389 -.00018892  00000+0 -68453-3 0  2572
2 59501  43.0028 352.6840 0001340 273.2934 318.9453 15.27575515    12

Traccia STARLINK-31458 in tempo reale con AllMySat

Download on the App Store